Temp
25 27 27 28 29 31 31 30 30 28 27 27 27 27 25 23 23 23 22 21 21 21 21 20 21 21 21 21 20 20 20 20 19 19 19 18 19 19 18 18 18 18 18 17
25 26 27 29 29 29 29 30 30 28 27 28 26 27 26 24 23 23 23 22 21 21 21 20 20 20 20 21 21 20 20 20 20 19 19 19 19 19 18 18 18 18 17 17
26 27 26 27 28 28 29 29 29 30 27 26 27 28 25 25 24 23 23 23 22 22 21 20 20 20 21 21 21 21 21 21 20 20 19 19 19 19 18 18 18 18 17 17
26 27 26 27 28 29 29 29 30 29 28 28 28 28 27 27 24 24 23 23 22 22 21 21 21 21 21 22 21 21 21 21 21 20 19 19 19 18 17 18 18 18 17 17
26 25 26 27 28 28 30 29 29 29 29 27 26 27 30 25 25 25 25 24 23 23 22 22 21 22 22 22 22 21 21 21 21 20 20 19 19 18 18 18 18 18 17 17
27 25 28 28 29 28 27 27 26 26 28 26 29 27 30 26 27 28 27 25 24 24 23 22 22 23 23 23 22 22 22 21 21 21 20 20 20 19 19 19 19 18 18 17
25 26 27 28 28 28 28 29 27 26 26 27 27 26 29 30 29 29 29 26 25 24 23 23 22 23 24 23 23 22 22 22 21 21 21 20 20 20 21 20 19 19 19 18
24 24 26 28 29 28 27 30 28 26 26 28 23 26 29 30 30 28 28 27 26 25 24 23 24 25 24 24 24 23 22 22 22 22 22 21 21 21 22 21 20 20 19 19
24 24 26 27 28 29 27 27 31 29 24 28 28 27 28 29 29 28 28 27 26 25 25 24 24 25 25 25 24 24 23 23 23 23 22 22 22 21 22 21 21 21 20 19
25 24 27 28 28 27 28 29 27 27 27 26 27 27 30 30 31 30 28 28 27 26 25 24 24 26 26 26 25 24 24 24 24 24 23 23 22 22 22 21 21 21 21 20
27 26 26 26 27 28 27 27 26 29 28 28 27 29 29 31 31 31 29 28 27 26 25 24 23 25 27 27 26 25 24 24 24 24 24 23 23 22 22 21 22 23 21 21
26 26 25 27 28 27 29 28 28 28 26 26 28 30 30 29 31 31 31 29 27 25 25 24 23 23 26 26 26 25 25 25 25 25 25 24 23 23 23 24 20 21 22 20
23 24 24 25 27 27 26 28 29 29 29 27 28 29 30 28 27 27 27 27 25 24 23 23 23 23 23 25 26 26 26 25 25 24 24 24 24 23 23 23 22 21 22 20
24 25 25 25 26 28 26 27 27 28 28 28 27 29 30 30 28 29 27 26 24 23 23 23 23 25 26 26 27 26 26 25 23 24 24 24 24 24 23 22 20 20 21 20
24 23 24 26 28 28 28 27 27 26 28 28 29 28 31 30 30 30 30 26 23 23 22 24 26 28 28 26 25 25 24 24 23 23 23 24 24 23 22 21 19 18 17 15
22 23 23 24 26 27 27 28 28 28 28 27 30 29 31 31 29 27 27 24 24 24 25 27 29 28 28 28 28 26 25 24 23 23 23 22 22 21 20 20 19 17 16 17
22 22 23 24 26 26 25 27 28 28 29 28 28 30 31 29 27 28 28 26 25 28 30 30 32 31 29 28 27 26 25 24 23 23 22 22 21 20 20 19 17 16 16 17
20 19 20 23 23 22 26 29 29 29 28 28 29 29 29 29 29 26 25 26 26 28 29 28 27 28 28 27 27 26 25 24 24 23 22 21 20 19 19 18 17 16 16 17
21 19 18 21 23 25 26 26 27 27 28 28 27 28 28 26 24 23 25 27 28 28 27 27 27 27 27 27 27 26 26 26 25 24 23 22 21 20 19 18 16 15 17 17
19 18 20 19 21 23 22 21 20 21 26 23 23 25 26 24 28 27 23 24 27 27 28 28 28 28 27 27 27 27 27 27 26 24 23 21 20 19 17 16 16 14 16 15
18 17 19 19 19 23 18 18 19 25 27 21 22 23 23 24 22 19 20 22 23 24 24 26 26 27 27 27 27 27 26 26 25 24 23 22 20 18 18 16 15 15 14 14
20 18 15 17 19 21 17 18 23 21 19 20 20 20 20 20 19 20 20 22 24 24 25 25 25 26 26 26 26 26 25 25 23 23 21 20 18 18 17 16 15 15 14 14
18 17 15 16 17 16 15 15 16 19 19 20 20 20 19 19 19 19 20 22 23 23 24 24 25 25 25 25 25 25 25 24 24 22 20 20 17 16 16 16 15 14 13 15
17 19 18 15 13 15 15 15 16 16 16 16 17 17 20 18 19 19 19 21 22 22 23 23 23 23 23 23 24 24 24 22 21 20 18 17 16 16 15 16 14 14 14 14
14 14 16 17 15 15 15 13 14 14 15 16 16 16 17 20 17 17 19 20 20 21 22 22 22 23 22 22 22 22 20 20 20 19 18 16 17 16 16 16 14 14 15 15
10 12 16 19 15 15 14 14 15 15 14 14 17 17 17 18 17 19 19 19 19 20 20 20 21 21 21 21 20 20 19 17 17 16 15 16 16 15 15 15 15 15 15 15
Height
1478 1478 1476 1475 1475 1473 1476 1483 1485 1490 1492 1499 1503 1505 1510 1514 1517 1517 1519 1523 1525 1527 1532 1536 1538 1542 1545 1547 1549 1552 1554 1557 1560 1561 1563 1565 1566 1568 1569 1569 1570 1571 1571 1572
1477 1475 1473 1472 1473 1476 1479 1481 1484 1490 1493 1496 1505 1504 1506 1509 1510 1513 1515 1517 1520 1524 1528 1530 1534 1537 1539 1543 1545 1548 1550 1554 1556 1558 1560 1562 1563 1564 1566 1566 1567 1568 1570 1571
1471 1468 1472 1473 1473 1477 1478 1479 1482 1484 1493 1496 1499 1500 1502 1501 1506 1510 1511 1512 1515 1517 1520 1524 1527 1531 1534 1537 1541 1544 1547 1549 1552 1555 1557 1559 1560 1561 1563 1564 1565 1566 1568 1568
1468 1466 1467 1470 1470 1468 1476 1470 1474 1483 1491 1502 1495 1506 1492 1492 1497 1499 1502 1506 1507 1511 1515 1518 1521 1525 1529 1532 1537 1540 1543 1546 1548 1551 1553 1555 1557 1559 1560 1561 1562 1563 1564 1565
1463 1463 1467 1466 1464 1466 1468 1468 1474 1477 1484 1498 1503 1508 1478 1489 1491 1485 1487 1494 1498 1502 1506 1509 1513 1518 1524 1528 1531 1535 1539 1542 1544 1547 1549 1552 1554 1556 1557 1558 1559 1560 1561 1563
1456 1459 1457 1458 1460 1462 1468 1473 1484 1487 1488 1506 1488 1496 1478 1485 1474 1467 1476 1482 1488 1493 1497 1502 1508 1514 1518 1523 1526 1529 1533 1535 1539 1542 1545 1547 1549 1552 1554 1555 1557 1558 1559 1559
1456 1455 1454 1454 1459 1460 1464 1470 1496 1504 1506 1501 1486 1495 1470 1459 1459 1457 1464 1471 1477 1485 1491 1495 1500 1504 1509 1514 1518 1522 1526 1529 1533 1537 1539 1542 1545 1548 1550 1552 1553 1554 1555 1556
1461 1467 1451 1448 1447 1456 1461 1459 1474 1503 1501 1491 1495 1490 1462 1450 1451 1456 1459 1464 1473 1478 1482 1486 1490 1496 1501 1506 1512 1516 1518 1523 1527 1530 1533 1537 1540 1543 1545 1547 1548 1550 1551 1553
1454 1454 1442 1443 1445 1446 1459 1464 1449 1466 1487 1481 1470 1469 1456 1446 1446 1448 1451 1457 1460 1465 1471 1474 1481 1487 1492 1498 1502 1506 1512 1516 1520 1524 1528 1532 1535 1538 1540 1543 1545 1545 1547 1548
1438 1452 1434 1436 1441 1443 1443 1445 1466 1466 1482 1493 1473 1475 1460 1446 1440 1439 1446 1446 1448 1452 1460 1466 1471 1478 1485 1491 1496 1501 1505 1510 1514 1519 1523 1526 1529 1533 1536 1538 1540 1543 1544 1544
1426 1435 1438 1436 1433 1436 1445 1448 1451 1444 1454 1464 1476 1461 1442 1439 1433 1432 1434 1436 1438 1444 1449 1454 1461 1469 1476 1482 1488 1492 1498 1504 1509 1512 1516 1519 1523 1528 1532 1535 1534 1534 1541 1542
1422 1428 1438 1430 1424 1427 1425 1432 1436 1446 1462 1458 1454 1450 1428 1430 1428 1428 1426 1429 1434 1437 1440 1447 1454 1460 1468 1474 1480 1485 1491 1496 1500 1504 1508 1512 1515 1520 1522 1525 1532 1538 1535 1540
1420 1428 1439 1435 1428 1425 1429 1426 1426 1430 1433 1443 1455 1447 1426 1428 1429 1427 1426 1425 1427 1431 1436 1442 1449 1453 1459 1465 1471 1476 1480 1485 1490 1497 1500 1503 1507 1511 1514 1516 1520 1526 1529 1538
1412 1415 1420 1426 1421 1416 1426 1426 1425 1428 1434 1438 1437 1435 1425 1423 1425 1421 1420 1419 1422 1425 1430 1434 1442 1445 1450 1456 1461 1466 1471 1478 1484 1488 1490 1492 1496 1500 1505 1509 1515 1522 1528 1532
1407 1415 1411 1401 1394 1399 1406 1413 1417 1423 1418 1425 1422 1428 1416 1416 1415 1413 1411 1416 1418 1421 1425 1428 1432 1437 1443 1449 1454 1461 1467 1471 1476 1479 1481 1482 1488 1495 1500 1504 1508 1514 1520 1536
1405 1406 1408 1405 1395 1395 1396 1396 1402 1408 1410 1416 1410 1413 1404 1405 1409 1409 1407 1411 1413 1415 1418 1422 1427 1432 1437 1443 1449 1455 1460 1465 1469 1472 1475 1478 1482 1485 1489 1493 1495 1502 1509 1508
1399 1403 1406 1404 1391 1395 1406 1390 1394 1397 1396 1402 1409 1400 1395 1399 1400 1400 1401 1403 1406 1407 1411 1415 1419 1423 1431 1438 1445 1450 1455 1460 1463 1466 1469 1471 1474 1476 1479 1484 1487 1493 1498 1503
1400 1402 1411 1407 1401 1418 1381 1374 1377 1384 1386 1390 1388 1389 1388 1388 1389 1396 1398 1397 1400 1403 1408 1411 1416 1422 1429 1436 1442 1447 1451 1454 1458 1460 1463 1466 1467 1470 1473 1475 1478 1483 1491 1490
1393 1396 1414 1419 1404 1384 1375 1375 1376 1381 1381 1380 1384 1383 1384 1388 1394 1394 1393 1393 1396 1399 1404 1410 1416 1423 1428 1433 1438 1442 1446 1451 1455 1457 1458 1460 1461 1462 1464 1465 1469 1478 1483 1487
1389 1394 1403 1418 1419 1402 1381 1384 1384 1381 1381 1377 1379 1379 1380 1388 1389 1388 1389 1392 1392 1397 1401 1407 1413 1419 1425 1430 1433 1438 1442 1446 1449 1451 1453 1455 1457 1460 1462 1466 1466 1473 1479 1484
1394 1399 1398 1413 1416 1386 1391 1388 1384 1384 1371 1369 1373 1374 1379 1384 1390 1391 1393 1391 1393 1395 1405 1408 1413 1419 1424 1428 1432 1435 1437 1440 1446 1447 1447 1446 1448 1451 1452 1458 1461 1468 1473 1478
1384 1400 1418 1423 1411 1397 1394 1388 1381 1377 1373 1371 1368 1373 1382 1388 1389 1394 1397 1403 1399 1398 1408 1414 1415 1420 1423 1426 1428 1431 1435 1439 1441 1439 1444 1442 1443 1445 1447 1453 1457 1463 1470 1470
1385 1383 1396 1419 1411 1408 1403 1401 1391 1386 1383 1385 1378 1378 1383 1391 1398 1397 1400 1403 1402 1407 1405 1414 1418 1421 1424 1425 1427 1429 1432 1433 1433 1434 1438 1437 1440 1442 1444 1448 1453 1457 1466 1469
1379 1381 1386 1401 1402 1411 1406 1401 1393 1390 1391 1393 1388 1389 1387 1389 1397 1400 1402 1405 1405 1410 1410 1414 1419 1422 1424 1423 1423 1424 1424 1431 1428 1431 1437 1439 1440 1439 1442 1443 1449 1454 1460 1464
1391 1392 1390 1397 1401 1411 1408 1406 1403 1398 1398 1395 1394 1396 1396 1392 1399 1402 1404 1407 1407 1410 1411 1417 1419 1421 1422 1422 1423 1421 1427 1430 1426 1432 1435 1437 1439 1441 1442 1445 1448 1454 1455 1460
1400 1396 1392 1392 1395 1400 1407 1407 1403 1399 1401 1402 1399 1403 1404 1399 1406 1405 1404 1408 1411 1413 1414 1417 1419 1420 1422 1423 1423 1424 1426 1428 1431 1433 1435 1438 1439 1442 1443 1448 1449 1453 1455 1458
Wind_Speed
8 10 16 18 15 10 15 15 15 9 11 12 13 11 7 16 20 22 23 25 27 29 26 25 26 27 27 26 24 25 24 24 21 21 19 20 19 18 17 16 15 17 16 16
5 17 13 15 14 9 15 19 16 7 10 12 9 14 10 17 25 25 25 26 27 25 25 27 27 28 30 29 26 26 26 22 24 24 22 20 17 16 16 15 16 16 16 15
14 7 10 11 12 14 14 19 16 14 9 3 7 15 10 13 22 23 25 26 26 27 28 28 29 29 30 30 29 27 25 22 23 24 23 21 19 18 17 18 18 16 14 13
9 10 16 13 17 15 18 14 15 16 12 13 11 14 12 17 18 22 28 30 29 28 27 26 28 32 32 31 29 29 25 23 24 24 25 24 22 17 14 14 12 12 12 12
8 10 13 20 20 14 11 12 17 15 16 7 8 6 11 9 17 24 30 33 34 32 31 31 30 32 33 31 31 29 27 26 27 26 26 24 22 19 17 13 12 12 13 13
14 3 14 14 14 17 10 11 6 5 8 9 14 13 9 9 16 25 27 33 36 34 32 31 30 31 32 31 30 31 30 30 29 28 27 27 24 20 18 15 13 14 15 16
12 14 7 10 14 13 14 13 6 9 7 9 5 11 17 11 17 22 21 36 37 35 33 32 32 35 36 37 34 33 33 33 32 31 30 29 26 21 18 16 15 15 15 14
14 13 17 14 16 12 19 21 12 16 10 12 5 11 7 16 19 19 21 24 31 36 35 35 37 39 39 38 36 35 35 35 35 34 33 31 28 25 22 20 17 17 16 13
12 16 4 12 8 17 9 13 15 14 2 6 6 5 10 14 13 12 21 21 30 36 40 41 41 42 41 39 37 39 38 38 38 38 35 34 32 30 27 22 18 17 17 16
11 6 16 10 13 8 12 13 11 7 18 17 9 5 7 6 11 12 12 25 32 35 38 40 43 46 43 40 38 38 39 40 41 41 39 37 36 32 28 24 21 19 19 18
15 13 6 6 16 22 9 8 2 6 7 14 15 13 8 13 13 12 15 26 28 32 39 42 42 48 45 43 43 43 40 40 41 43 43 42 40 35 31 29 25 21 21 19
13 10 13 21 5 9 19 19 18 12 12 5 9 13 4 14 14 13 16 16 21 29 38 35 35 39 44 47 45 47 44 43 42 45 46 46 45 40 37 36 31 23 21 24
9 6 9 11 16 15 10 19 20 15 11 17 15 13 3 6 11 20 17 14 14 22 25 30 30 33 36 41 47 48 48 47 47 46 48 50 48 47 44 41 38 32 23 25
9 8 11 15 19 16 16 17 17 20 16 15 16 18 11 11 13 17 18 22 15 19 27 29 29 33 34 35 39 44 48 47 43 47 50 53 52 50 49 48 40 33 27 23
8 7 15 24 26 27 25 24 20 20 25 21 19 19 18 15 16 21 25 15 14 19 24 31 33 32 33 34 36 37 39 42 42 46 50 54 51 49 48 47 44 36 28 20
4 2 2 16 26 23 28 27 23 23 24 19 21 13 13 16 16 13 20 18 20 24 29 32 31 32 34 32 32 31 31 33 35 39 42 44 46 45 45 47 48 44 39 41
6 1 4 9 12 17 22 25 24 21 22 21 20 16 10 11 12 20 23 22 26 29 30 31 34 35 30 28 26 25 23 21 25 28 30 32 35 38 39 42 44 46 38 24
3 5 2 8 4 10 17 22 25 24 20 16 14 12 13 16 23 10 17 21 23 23 26 30 28 26 22 17 13 11 11 10 12 17 20 23 27 32 33 35 41 47 40 28
5 6 3 4 5 10 10 5 18 22 23 18 17 15 11 10 12 4 9 17 18 21 21 17 16 15 10 12 11 8 4 3 6 11 14 16 19 23 28 31 38 40 33 27
15 13 6 2 9 6 4 6 7 3 15 11 11 12 8 9 11 4 2 6 9 8 11 17 20 23 21 18 15 11 7 4 0 4 7 8 11 17 22 28 29 37 32 32
4 3 5 8 9 6 7 17 6 11 6 9 11 9 13 5 4 12 16 22 18 21 21 26 24 21 19 16 11 9 7 6 9 11 11 11 13 13 13 23 27 36 22 23
7 8 4 3 6 6 26 14 5 5 9 20 27 30 30 26 25 23 26 26 34 34 28 23 23 18 14 10 7 3 7 11 14 13 16 13 15 15 14 17 24 29 23 24
6 6 7 9 3 16 16 11 3 12 19 18 29 32 33 27 22 24 24 23 26 24 25 19 15 12 7 5 4 4 7 11 13 12 16 15 17 14 15 16 18 19 22 22
4 8 5 6 5 9 9 13 17 18 18 16 20 22 30 27 24 22 22 20 20 18 20 17 13 11 9 8 6 8 9 13 10 12 15 15 17 16 14 13 15 19 20 19
4 2 10 4 12 7 9 10 12 18 20 26 27 26 27 32 26 24 25 24 23 21 20 17 14 12 12 11 8 6 1 5 6 11 15 16 13 11 13 16 21 22 20 18
7 2 3 7 9 5 7 13 21 27 22 20 28 27 27 29 25 25 26 23 20 17 15 13 10 9 9 9 9 8 7 6 11 16 17 14 9 12 14 18 19 17 15 16
Wind_Direction
192 200 202 192 197 208 205 212 197 175 164 188 219 245 206 196 207 201 203 203 205 210 210 211 213 216 220 223 222 218 220 222 218 221 227 235 239 246 253 259 263 260 265 268
178 220 203 198 202 191 203 212 208 150 154 191 198 234 223 202 217 212 208 208 213 214 210 214 216 218 223 224 223 221 224 225 225 228 234 240 248 253 259 263 267 262 259 263
214 214 193 196 201 194 207 205 200 197 168 136 195 242 222 219 222 221 224 223 220 217 212 214 215 219 223 225 225 224 221 220 224 228 235 240 243 246 250 253 255 255 253 252
221 216 196 200 209 198 213 217 210 193 179 226 199 259 224 218 214 217 224 223 222 220 218 217 215 221 223 228 227 229 224 221 224 228 235 238 242 241 247 257 255 243 237 242
193 188 196 204 207 201 215 187 192 193 198 186 201 239 257 202 220 223 219 221 224 220 218 218 217 220 225 226 228 227 226 225 227 228 232 236 238 241 246 239 232 234 238 233
221 177 206 202 203 195 145 123 123 118 186 225 216 215 228 191 220 229 219 216 220 219 217 219 221 222 222 223 225 227 226 226 228 228 231 233 236 238 240 234 233 237 233 233
213 230 224 199 191 195 194 170 176 201 202 229 222 213 247 234 235 227 214 215 215 216 217 214 214 219 222 222 219 221 223 225 228 228 229 229 231 232 235 234 231 232 232 228
209 222 216 195 211 185 194 199 205 208 209 221 169 217 248 236 259 238 234 224 216 216 215 215 215 218 221 223 221 220 219 222 226 226 226 226 226 225 224 227 228 228 228 230
200 222 205 205 189 186 180 215 228 233 61 232 193 243 274 262 248 223 221 211 212 213 212 214 216 218 219 220 216 217 218 218 221 225 226 227 226 225 224 227 230 230 226 227
199 214 213 178 207 186 207 176 199 217 227 235 216 238 240 248 252 231 207 213 219 212 211 212 214 217 218 219 217 219 220 221 220 224 226 228 228 226 225 225 229 236 232 227
195 214 198 218 217 215 191 199 220 244 235 234 238 238 214 236 247 242 229 224 220 209 208 210 209 217 218 220 220 221 222 224 225 226 227 229 230 227 228 234 228 222 234 233
206 212 229 236 233 255 232 219 209 222 202 230 252 230 195 228 251 248 246 235 227 213 214 208 207 213 216 221 224 225 226 226 228 229 230 231 231 229 227 234 237 235 234 236
163 202 218 241 240 232 238 227 223 233 248 218 231 232 224 249 255 249 257 252 228 211 202 203 204 209 214 219 224 228 230 230 232 231 235 236 234 231 233 235 231 229 232 239
172 194 216 233 234 233 230 239 223 220 229 226 229 242 228 242 241 249 239 249 228 207 204 203 202 215 223 225 226 230 233 233 232 235 238 240 239 236 235 237 231 225 239 234
184 214 231 231 229 216 220 226 219 219 231 232 232 222 228 228 233 236 237 238 210 201 200 206 210 218 224 227 231 234 236 238 237 240 242 247 247 244 239 236 226 215 215 253
208 208 261 249 240 234 219 218 226 220 223 229 239 225 226 235 237 248 225 206 205 207 208 209 214 220 224 228 235 237 241 240 243 247 252 255 256 252 246 240 234 213 205 211
165 111 330 285 241 230 238 221 220 224 223 210 224 226 216 225 232 235 229 208 209 208 209 209 214 221 223 228 233 241 251 252 251 255 258 259 258 258 253 246 238 212 209 218
204 114 108 294 227 215 238 233 225 216 219 217 247 250 222 229 231 237 230 216 221 221 218 219 218 217 224 228 231 228 234 247 260 266 265 265 261 255 255 250 242 220 214 226
206 106 59 315 282 282 230 195 219 219 237 231 232 236 246 225 177 199 222 220 223 229 231 235 231 219 197 165 151 157 163 249 266 268 266 267 266 257 250 246 237 217 219 233
107 108 99 340 288 269 46 339 346 297 227 186 212 223 212 169 202 145 139 179 184 188 180 174 159 152 147 142 139 134 122 123 268 261 258 256 259 258 256 250 239 213 222 233
139 45 52 315 266 270 7 329 271 186 200 159 181 154 142 154 87 102 109 100 117 123 132 135 136 139 137 133 136 149 172 219 249 247 233 225 229 221 223 236 229 211 231 222
157 144 129 305 251 248 355 321 258 50 104 131 110 110 109 108 101 98 100 104 103 104 104 101 109 110 116 126 145 193 245 261 261 238 229 214 222 217 212 225 221 213 229 210
157 158 142 199 274 323 339 291 5 107 94 90 104 108 110 101 95 97 92 93 93 94 96 89 83 82 70 59 32 340 293 269 261 237 215 200 203 202 206 208 208 197 198 198
59 153 132 131 99 288 4 54 70 79 78 78 88 96 101 95 98 86 86 83 89 89 89 86 76 62 50 42 2 333 318 271 242 220 205 189 191 188 188 181 184 187 190 184
31 312 141 95 139 157 72 68 73 83 83 82 79 78 80 95 83 90 86 83 83 85 82 81 72 61 67 67 65 65 165 222 197 192 187 178 176 183 179 186 178 180 185 202
344 348 192 165 135 112 136 122 96 83 74 75 84 79 74 72 82 79 76 71 66 66 69 65 68 70 73 65 73 91 111 157 187 173 171 172 185 184 189 189 187 202 224 237